Regional Weather Roundup
Issued by NWS

Home | Current Version | Previous Version | Text Only | Print | Product List | Glossary Off
Versions: 1 2 3 4 5 6 7 8 9 10 11 12 13 14 15 16 17 18 19 20 21 22 23 24 25 26 27 28 29 30 31 32 33 34 35 36 37 38 39 40 41 42 43 44 45 46 47 48 49 50

000
ASUS43 KFSD 170210
RWRSD

WEATHER ROUNDUP FOR SOUTH DAKOTA
NATIONAL WEATHER SERVICE SIOUX FALLS SD
900 PM CDT TUE SEP 16 2014

NOTE: "FAIR" INDICATES FEW OR NO CLOUDS BELOW 12,000 FEET WITH NO
SIGNIFICANT WEATHER AND/OR OBSTRUCTIONS TO VISIBILITY.


SDZ001>005-009-010-012>017-170300-
NORTHWEST AND NORTH CENTRAL SOUTH DAKOTA

CITY           SKY/WX    TMP DP  RH WIND       PRES   REMARKS
BUFFALO          N/A     66  47  50 NE8       29.89R
FAITH            N/A     68  50  52 SE7       29.92S
MOBRIDGE       CLEAR     60  50  69 NE8       29.88S
$$

SDZ012>016-024>037-041>051-057-063-072>074-170300-
SOUTHWEST AND SOUTH CENTRAL SOUTH DAKOTA

CITY           SKY/WX    TMP DP  RH WIND       PRES   REMARKS
RAPID CTY ARPT CLEAR     58  48  69 W3        29.95S
PIERRE         PTCLDY    60  51  72 N5        29.89R
CUSTER         PTCLDY    61  43  51 NE5       30.10R
ELLSWORTH AFB  CLEAR     63  49  61 NW5       29.95S
PHILIP         PTCLDY    67  53  61 SE5       29.90S
PINE RIDGE     CLEAR     60  51  72 NE8       29.95R
WINNER         FAIR      69  56  62 CALM      29.91R
$$

SDZ004>011-016>023-039-040-170300-
NORTHEAST SOUTH DAKOTA

CITY           SKY/WX    TMP DP  RH WIND       PRES   REMARKS
ABERDEEN       CLEAR     55  52  89 E3        29.91S
WATERTOWN      CLOUDY    61  51  70 SE7       29.95S
SISSETON         N/A     62  53  72 S5        29.92S
$$

SDZ017-020-022-023-036>040-048>070-170300-
SOUTHEAST SOUTH DAKOTA

CITY           SKY/WX    TMP DP  RH WIND       PRES   REMARKS
SIOUX FALLS    CLOUDY    63  49  60 S14       29.97S
HURON          PTCLDY    63  55  75 SE6       29.91R
CHAMBERLAIN    CLEAR     61  57  85 SE6       29.89S
MITCHELL       PTCLDY    63  55  75 S10       29.93R
YANKTON        CLEAR     61  52  72 SE8       29.97R
$$

ABBREVIATIONS USED IN REMARKS
   TC - TEMPERATURE IN CELSIUS
  WCI - WIND CHILL INDEX
   HX - HEAT INDEX
  VSB - VISIBILITY




USA.gov is the U.S. government's official web portal to all federal, state and local government web resources and services.